Regional Weather Roundup
Issued by NWS

Home | Current Version | Previous Version | Text Only | Print | Product List | Glossary On
Versions: 1 2 3 4 5 6 7 8 9 10 11 12 13 14 15 16 17 18 19 20 21 22 23 24 25 26 27 28 29 30 31 32 33 34 35 36 37 38 39 40 41 42 43 44 45 46 47 48 49 50
000
ASUS45 KCYS 080210
RWRWY

WYOMING REGIONAL WEATHER ROUNDUP
NATIONAL WEATHER SERVICE CHEYENNE WY
800 PM MDT TUE JUL 07 2015

NOTE:  "FAIR" INDICATES FEW OR NO CLOUDS BELOW 12,000 FEET
WITH NO SIGNIFICANT WEATHER AND/OR OBSTRUCTIONS TO VISIBILITY.

WYZ001-080300-
YELLOWSTONE NATIONAL PARK

CITY           SKY/WX    TMP DP  RH WIND       PRES   REMARKS
LK YELLOWSTONE   N/A     60  41  49 NW13G20   30.21R
W YELLOWSTONE  NOT AVBL

$$
WYZ002>013-054>058-071-098>099-080300-
NORTHERN WYOMING

CITY           SKY/WX    TMP DP  RH WIND       PRES   REMARKS
JACKSON        CLOUDY    63  46  55 NE14G20   30.08S
CODY           CLOUDY    66  46  48 W6        30.09R
GREYBULL       CLOUDY    74  50  42 SE15G22   29.98R
WORLAND        LGT RAIN  62  57  83 SE17      30.02R
SHERIDAN       FAIR      68  56  65 CALM      30.02R
BUFFALO        FAIR      64  51  62 S6        30.09S
GILLETTE       FAIR      63  56  78 CALM      30.04S
HULETT         MOCLDY    63  59  88 S5        30.05S
NEWCASTLE      LGT RAIN  68  54  60 MISG      30.04S

$$
WYZ014>020-022>026-101>103-080300-
CENTRAL WYOMING

CITY           SKY/WX    TMP DP  RH WIND       PRES   REMARKS
BIG PINEY      CLOUDY    56  49  77 S16       30.16F
PINEDALE       FAIR      59  45  58 SW8       30.16R
DUBOIS         FAIR      61  43  51 E12G20    30.16S
LANDER         CLOUDY    62  52  69 E15       30.11R
RIVERTON       LGT RAIN  58  54  86 NE13      30.12S
CASPER         CLOUDY    62  52  69 E13       30.09R
DOUGLAS        LGT RAIN  60  58  92 W9        30.08S FOG

$$
WYZ021-027>030-104>119-080300-
SOUTHERN WYOMING

CITY           SKY/WX    TMP DP  RH WIND       PRES   REMARKS
EVANSTON       FAIR      56  51  84 VRB5      30.16S
KEMMERER       FAIR      61  48  63 S6        30.18S
FORT BRIDGER   CLEAR     61  57  88 S7        30.18F
ROCK SPRINGS   CLOUDY    56  53  90 NE9       30.17S
DIXON          FAIR      62  55  78 E5        30.16R
RAWLINS        FAIR      56  53  90 SE6       30.15F
SARATOGA       MOCLDY    55  52  88 S5        30.17F
LARAMIE        LGT RAIN  54  52  93 NW6       30.19R
CHEYENNE       LGT RAIN  60  54  80 S8        30.14R
TORRINGTON     CLOUDY    67  52  58 E12       30.04S
PINE BLUFFS    MOCLDY    64  48  55 SE7       30.11S

$$


USA.gov is the U.S. government's official web portal to all federal, state and local government web resources and services.